Overview Statistics Trail Chart Weather Telemetry Raw packets
 

This is the latest recevied weather packets stored in our database for station/object SQ5JP-4. If no packets are shown the sender has not sent any weather packets the latest 10 day(s).

<< 23 24 25 26 27 28 29 >>
Time Temp. Humidity Pressure Rain* Wind** Luminosity Snow
1788004126 17.78° C 100% 993.8 hPa - - - -
1788003231 17.78° C 100% 993.8 hPa - - - -
1788002326 17.22° C 100% 993.6 hPa - - - -
1788001426 16.67° C 100% 993.6 hPa - - - -
1788000526 16.11° C 100% 993.6 hPa - - - -
1787999625 16.11° C 100% 993.6 hPa - - - -
1787998725 15.56° C 100% 993.6 hPa - - - -
1787997825 15.56° C 100% 993.4 hPa - - - -
1787996925 15.56° C 100% 993.3 hPa - - - -
1787996025 15.56° C 100% 993.1 hPa - - - -
1787995125 15.56° C 100% 993.2 hPa - - - -
1787994225 16.11° C 100% 993.4 hPa - - - -
1787993325 16.11° C 100% 993 hPa - - - -
1787992424 16.11° C 100% 992.9 hPa - - - -
1787991524 16.67° C 100% 993.5 hPa - - - -
1787990624 16.67° C 100% 993.6 hPa - - - -
1787989724 17.22° C 100% 993.9 hPa - - - -
1787988824 17.78° C 100% 993.8 hPa - - - -
1787987026 17.78° C 100% 993.9 hPa - - - -
1787986126 17.78° C 100% 993.6 hPa - - - -
1787985226 17.78° C 100% 993.8 hPa - - - -
1787984326 17.22° C 100% 993.6 hPa - - - -
1787983426 16.67° C 100% 993.6 hPa - - - -
1787982526 16.67° C 100% 993.5 hPa - - - -
1787981625 16.11° C 100% 993.7 hPa - - - -

* Rain since midnight (hover to see other rain measurements)
** Current wind speed in m/s (hover to see current wind gust speed)